Aérodrome :
LOGIN :

S'inscrire | Disclaimer

   EN    FR    IT 

 










Légende :    VFR   VFR Marginal   IFR   IFR Intensif   IFR Très Intensif
Visi : 
Plafond : 
>= 8 km
>= 3000ft
5 à 8 km
1000 à 3000 ft
1500m à 5 km
500 à 1000 ft
800 à 1500m
200 à 500 ft
< 800m
< 200 ft
Symboles :   Orages  Brouillard  Fortes neiges  Fortes précipitations  Vent > 20 kt
SIGMETs :   Divers  Orages  Givrage  Turbulence  Onde Orograph.  Cendres Volcan.






- Altitude de l'aérodrome : 1682 ft
- Code IATA : VIT


LEVT - Vitoria Gasteiz

DERNIER METAR :
  • 281300Z 17003KT CAVOK 27/09 Q1023

METARs EXPIRÉS :
  • 281230Z VRB03KT CAVOK 27/11 Q1023
  • 281200Z VRB02KT CAVOK 26/10 Q1023
  • 281130Z 05003KT CAVOK 26/12 Q1023
  • 281100Z 08003KT CAVOK 25/11 Q1024
  • 281030Z 32002KT CAVOK 24/11 Q1024

TAF TAF LEVT
Valide du 28 à 12h jusqu'au 29 à 12h UTC


281100Z 2812/2912 14009KT CAVOK TX29/2813Z TN11/2905Z
TEMPO 2815/2820 03010KT



MET'MAP, la Météo Aéronautique d'un coup d'oeil ! - Copyright ORBIFLY Décembre 2007 - Disclaimer

ORBIFLY MET'MAP TEAM :

Programmation & Développement : Alexandra Zaïnal
Sur une idée originale de : Baudouin d'Aumeries
Assistance à la programmation : Marc-Olivier Méhu
Soutien technique & logistique : Manuel Goepfert

Contact : metmap@orbifly.com




SOURCES & CREDITS :

   NOAA